Lid_Strength_Index
-1 -1 0 3 11 12 14 12 7 8 7 5 4 6 7 6 8 11 1 0 -0 -0 -1 -1 -2 -2 -2 -1 -1 -1 -1 -2 -1 -1 -1 -1 -1 -1 -2 -1 -1 -2 -2 -2 -2 -2 -2 -2 -2
-0 0 2 6 13 15 13 8 9 7 5 4 5 6 7 7 4 3 2 0 -0 -0 -1 -1 -2 -1 -1 -1 -1 -1 -1 -1 -1 -1 -1 -1 -1 -1 -2 -2 -2 -2 -2 -2 -2 -2 -2 -2 -1
0 1 6 10 13 15 14 9 7 6 5 5 6 5 6 6 3 2 1 0 -0 -0 -1 -1 -2 -2 -1 -1 -1 -1 -1 -1 -1 -1 -1 -1 -1 -2 -1 -1 -2 -2 -2 -2 -2 -2 -2 -2 -1
2 4 5 12 14 12 10 8 6 6 5 5 5 8 4 2 2 1 0 -0 0 -0 -1 -1 -2 -1 -1 -1 -1 -1 -1 -1 -1 -1 -1 -1 -1 -2 -2 -2 -2 -2 -2 -2 -2 -2 -1 -2 -2
2 5 11 13 12 9 7 6 6 7 6 6 5 7 5 2 1 1 0 0 1 0 -1 -1 -2 -1 -1 -1 -1 -1 -1 -1 -1 -2 -1 -1 -1 -1 -1 -2 -2 -2 -2 -2 -2 -2 -1 -2 -1
6 7 13 14 12 9 8 6 6 6 6 6 6 6 5 2 1 1 0 0 0 0 -0 -1 -1 -1 -1 -1 -1 -1 -1 -1 -2 -2 -2 -2 -1 -1 -1 -1 -2 -1 -2 -2 -1 -1 -1 -1 -1
8 10 13 12 11 10 8 5 7 7 7 7 5 7 4 3 1 1 0 0 0 -0 -0 -1 -1 -1 -1 -1 -1 -1 -1 -1 -2 -2 -2 -2 -2 -2 -1 -1 -1 -1 -2 -1 -1 -1 -1 -1 -1
6 9 11 11 12 11 7 6 5 6 7 4 3 7 7 3 1 1 0 0 0 0 -0 0 -1 -1 -1 -1 -2 -1 -1 -1 -1 -2 -2 -2 -2 -2 -1 -1 -2 -2 -2 -1 -1 -1 -1 -1 -1
5 11 13 11 10 10 6 7 5 4 5 5 4 4 3 2 1 1 1 1 1 1 0 -0 -0 -0 -1 -1 -1 -1 -2 -2 -2 -2 -1 -1 -1 -1 -1 -1 -1 -1 -1 -1 -1 -1 -1 -2 -2
8 12 11 7 7 8 6 6 6 6 6 6 5 3 3 2 2 3 2 2 2 1 1 0 -0 -0 -1 -1 -1 -1 -1 -1 -1 -1 -1 -1 -1 -1 -1 -1 -1 -1 -1 -1 -1 -1 -1 -2 -1
8 11 8 7 6 6 6 6 5 6 8 5 6 4 3 3 2 3 2 2 2 1 1 0 -0 -0 -0 -0 -1 -1 -1 -1 -1 -1 -1 -1 -1 -1 -1 -1 -1 -1 -1 -1 -1 -1 -1 -1 -1
9 7 6 5 5 6 7 5 7 7 7 5 3 3 3 3 3 3 2 2 1 1 1 0 -0 -0 -0 -0 -1 -0 -0 -1 -0 -1 -1 -1 -0 -0 -1 -1 -1 -1 -1 -1 -1 -1 -1 -1 -1
8 6 5 5 5 5 5 7 7 6 4 4 3 3 3 3 3 2 2 1 1 1 1 0 -0 0 -0 -0 -0 -1 -0 -1 -0 -1 -1 -1 -0 -0 -1 -0 -1 -1 -1 -1 -1 -1 -1 -1 -1
5 5 5 5 5 5 6 6 6 6 4 5 4 4 3 3 3 2 2 2 2 1 1 0 0 -1 -0 -0 -0 -1 -1 -1 -0 -1 -1 -1 -1 -0 -0 -1 -1 -1 -1 -1 -1 -0 -0 -0 -0
5 7 6 6 5 6 5 7 7 5 5 5 5 4 3 3 2 3 2 2 1 1 1 0 0 -0 -0 -1 -0 -1 -1 -1 -0 -1 -1 -1 -1 -1 -0 -0 -0 -1 -1 -1 -1 -1 -0 -0 -0
8 10 11 6 6 6 6 11 7 5 5 6 5 4 4 3 3 2 2 1 1 1 1 0 0 0 0 0 -0 -1 -1 -1 -1 -1 -1 -1 -1 -1 -1 -0 -0 -1 -2 -1 -0 -0 0 0 0
9 14 12 10 6 7 8 10 6 5 5 6 6 5 4 4 3 2 2 1 1 1 1 0 0 0 0 -1 -0 -1 -1 -0 -0 -1 -1 -1 -1 -1 -1 -0 -1 -2 -1 -0 -0 -0 0 1 1
14 12 12 13 7 7 8 9 7 5 6 6 6 5 5 4 3 2 2 1 1 1 0 -0 0 0 0 -0 -1 0 -0 -0 0 -1 -1 -1 -1 -2 -1 -1 -1 -1 -0 -0 -0 0 0 1 1
8 10 12 11 6 7 9 9 7 6 6 6 6 6 5 4 3 2 2 1 1 1 1 1 1 0 0 1 0 1 2 1 -0 -1 -1 -1 -2 -2 -1 -0 -1 -1 -0 -0 -1 0 1 1 0
7 8 8 7 6 8 9 9 7 6 6 6 6 6 5 4 4 3 2 2 1 1 1 1 1 0 0 0 0 0 1 0 0 -1 -1 -2 -2 -1 -1 -1 -0 -1 -0 -0 -0 -0 1 1 1
7 8 8 8 7 9 11 11 9 7 6 5 5 5 5 5 4 3 3 2 2 1 1 1 0 0 -0 0 0 0 -0 -0 0 1 0 -0 -1 -2 -1 -1 -1 0 0 1 1 0 1 2 1
8 7 7 7 8 12 9 16 11 10 8 6 6 5 5 4 4 3 3 3 2 1 1 1 0 0 -0 -1 0 1 1 2 1 1 0 -0 -1 -1 -1 -1 -1 -0 -0 0 0 0 0 1 2
7 6 6 7 8 10 11 14 13 10 11 8 6 5 5 4 4 3 3 2 2 1 1 1 1 0 0 -0 -1 1 1 0 1 1 1 -0 -1 -1 -1 -1 -1 -0 -0 -0 0 0 0 0 1
5 6 6 7 8 12 12 13 15 13 11 8 6 5 4 4 3 3 2 2 2 1 1 1 1 1 0 0 0 0 0 0 0 1 0 1 0 0 -0 -1 -1 -1 -1 -0 -0 -0 0 0 0
6 8 12 14 12 12 10 14 13 10 9 7 6 5 4 4 4 3 3 3 2 2 2 1 1 1 1 1 1 0 1 0 0 -0 1 -0 1 1 -0 -0 -0 -0 -0 -0 -0 -0 0 0 1
7 8 12 15 14 12 10 13 11 7 6 5 5 4 4 4 3 3 3 3 2 2 2 1 2 2 1 1 1 0 0 1 1 0 1 0 1 0 -0 -0 -1 -1 -1 -0 -1 -0 0 0 1
8 8 6 9 9 11 11 10 8 7 6 5 5 5 5 4 4 3 3 3 2 2 2 2 2 1 1 1 1 1 0 0 1 0 0 0 -0 -0 -0 -0 -1 -0 -0 -1 -0 0 0 0 0
6 6 9 9 13 15 13 14 16 11 7 6 6 5 5 4 3 3 3 2 2 2 1 1 1 1 1 1 1 1 1 0 0 0 -0 -0 -1 -1 -1 -1 -0 -0 -0 -0 -0 0 0 0 0
7 7 7 7 9 11 14 12 8 9 6 6 5 5 5 4 4 3 3 2 2 2 1 2 1 1 1 1 1 1 1 0 0 0 0 -0 -1 -0 -0 -0 -0 -0 0 -0 0 0 0 1 1
6 7 7 9 10 9 12 12 5 5 5 4 5 5 4 4 3 3 3 2 2 2 2 1 1 1 1 1 1 1 1 0 1 1 0 -0 0 -0 -0 -0 -0 0 0 0 0 1 1 1 1